Edna St. Vincent Millay

(22 February 1892 – 19 October 1950 / Rockland / Maine / United States)

Stats

» Click to list general statistics » OR, select a date :

General Statistics

Visitors of the poet

Number of visitors of the poet’s mainpage in PoemHunter.Com

Attention : Numbers in this table does not indicate the total hits of poems of the poet, but indicates the hits of the poet’s main page.

Date Hits
07/27/2016 Wednesday 734
65%
07/26/2016 Tuesday 1114
100%
07/25/2016 Monday 645
57%
07/24/2016 Sunday 587
52%
07/23/2016 Saturday 576
51%
07/22/2016 Friday 389
34%
07/21/2016 Thursday 434
38%
07/20/2016 Wednesday 374
33%
07/19/2016 Tuesday 375
33%
07/18/2016 Monday 403
36%
07/17/2016 Sunday 302
27%
07/16/2016 Saturday 367
32%
07/15/2016 Friday 398
35%
07/14/2016 Thursday 485
43%
07/13/2016 Wednesday 330
29%
07/12/2016 Tuesday 515
46%
07/11/2016 Monday 581
52%
07/10/2016 Sunday 411
36%
07/09/2016 Saturday 356
31%
07/08/2016 Friday 448
40%

Reader rating & num.of MyPoemList’s

Click the captions of columns to change the order.

# Poem Title Submit Date Reader Rating Num.of MyPoemList’s
Rating Num.R.
1 [four Sonnets (1922)] 01/01/2004 5.3 107 30
2 A Visit To The Asylum 01/13/2003 6.1 101 60
3 Afternoon On A Hill 01/04/2003 6.6 119 78
4 Alms 01/13/2003 5.7 93 27
5 An Ancient Gesture 01/13/2003 6.0 108 49
6 And Do You Think That Love Itself 01/13/2003 6.1 115 63
7 And You As Well Must Die, Belovèd Dust 01/01/2004 6.1 78 53
8 Apostrophe To Man 01/13/2003 5.9 119 32
9 Ashes Of Life 01/13/2003 6.0 88 67
10 Assault 01/13/2003 5.7 125 20
11 Autumn Daybreak 01/13/2003 5.7 132 44
12 Being Young And Green 01/13/2003 5.6 86 33
13 Blight 01/13/2003 5.9 96 22
14 Bluebeard 01/01/2004 5.5 80 43
15 Burial 01/13/2003 5.4 90 30
16 Childhood Is The Kingdom Where Nobody Dies 11/28/2014 -- 0 1
17 Chorus 01/13/2003 5.8 82 23
18 City Trees 01/13/2003 5.8 135 59
19 Conscientious Objector 01/13/2003 5.5 180 73
20 Counting-Out Rhyme 01/01/2004 6.1 99 23
21 Daphne 01/13/2003 5.7 94 33
22 Departure 01/13/2003 5.5 88 41
23 Dirge 01/13/2003 5.6 68 11
24 Dirge Without Music 01/13/2003 6.5 101 68
25 Doubt No More That Oberon 01/13/2003 5.6 66 13
26 Ebb 01/13/2003 5.5 81 25
27 Eel-Grass 01/13/2003 6.0 33 11
28 Elegy 01/13/2003 5.3 42 8
29 Elegy Before Death 01/13/2003 6.1 31 14
30 Epitaph 01/13/2003 6.1 38 17
31 Euclid Alone 01/01/2004 5.7 46 16
32 Exiled 01/13/2003 6.5 44 22
33 Feast 01/13/2003 6.0 50 14
34 First Fig 01/13/2003 7.5 75 93
35 Fontaine, Je Ne Boirai Pas De Ton Eau! 01/13/2003 5.5 31 8
36 God's World 01/04/2003 6.1 70 38
37 Grown-Up 01/01/2004 6.3 26 31
38 Here Is A Wound That Never Will Heal, I Know 01/13/2003 6.0 57 58
39 Humoresque 01/01/2004 5.6 30 16
40 I Do But Ask That You Be Always Fair 01/01/2004 5.5 42 29
41 I Dreamed I Moved Among The Elysian Fields 01/13/2003 5.9 68 25
42 I Know 100 Ways To Die 07/07/2003 7.8 4 28
43 I Know I Am But Summer To Your Heart 01/13/2003 6.5 41 48
44 I Know The Face Of Falsehood And Her Tongue 01/13/2003 5.6 44 8
45 I Shall Go Back 01/01/2004 5.8 46 28
46 I will put Chaos into fourteen lines 10/24/2015 10.0 1 1
47 I, Being Born A Woman And Distressed 01/01/2004 6.7 33 54
48 If I Should Learn, In Some Quite Casual Way 01/01/2004 6.4 40 36
49 If Still Your Orchards Bear 01/13/2003 5.8 33 7
50 Indifference 01/13/2003 5.8 33 11
51 Inert Perfection 03/11/2016 -- 0 0
52 Inland 01/13/2003 5.5 36 8
53 Intention To Escape From Him 01/13/2003 6.3 35 21
54 Interim 01/13/2003 6.1 36 14
55 Invocation To The Muses 01/13/2003 5.8 38 4
56 Journey 01/13/2003 6.3 27 17
57 Justice Denied In Massachusetts 01/13/2003 5.9 34 8
58 Kin To Sorrow 01/13/2003 5.5 34 21
59 Lament 01/13/2003 6.5 40 26
60 Lines For A Grave-Stone 01/01/2004 6.1 37 8
61 Lines Written In Recapitulation 01/13/2003 6.2 49 4
62 Love Is Not All 01/13/2003 7.5 81 177
63 Low-Tide 01/13/2003 4.8 45 14
64 Make Bright The Arrows 01/13/2003 5.7 38 4
65 Mariposa 01/13/2003 6.6 51 13
66 Memorial To D.C. 01/13/2003 5.8 32 2
67 Menses 01/13/2003 5.6 33 6
68 Midnight Oil 01/13/2003 6.0 36 12
69 Mist In The Valley 01/13/2003 6.2 41 18
70 Modern Declaration 01/13/2003 5.6 35 9
71 My Most Distinguished Guest And Learned Friend 01/13/2003 5.5 36 9
72 Night Is My Sister, And How Deep In Love 01/13/2003 5.8 37 27
73 No Rose That In A Garden Ever Grew 01/01/2004 5.5 36 12
74 Not Even My Pride Shall Suffer Much 01/13/2003 5.7 38 9
75 Not In A Silver Casket Cool With Pearls 01/13/2003 5.9 38 20
76 Ode To Silence 01/13/2003 5.9 34 15
77 Oh, My Belovèd, Have You Thought Of This 01/01/2004 6.0 36 13
78 Oh, Oh, You Will Be Sorry 01/13/2003 6.5 39 34
79 Only Until This Cigarette Is Ended 01/01/2004 5.5 36 45
80 Passer Mortuus Est 01/13/2003 5.8 46 10
81 Pastoral 01/13/2003 5.1 35 5
82 Pity Me Not Because The Light Of Day 01/13/2003 6.3 38 32
83 Portrait By A Neighbour 01/13/2003 5.9 35 9
84 Prayer To Persephone 01/13/2003 5.5 33 18
85 Recuerdo 01/01/2004 6.5 44 20
86 Renascence 01/04/2003 7.0 31 61
87 Rosemary 01/13/2003 5.6 45 6
88 Scrub 01/13/2003 5.8 43 5
89 Second Fig 01/13/2003 6.0 48 27
90 She Is Overheard Singing 06/18/2015 -- 0 1
91 Song Of A Second April 01/13/2003 6.0 47 9
92 Sonnet (Women Have Loved Before As I Love Now) 01/13/2003 5.9 44 18
93 Sonnet 01: Thou Art Not Lovelier Than Lilacs,&Mdash;No 01/13/2003 5.8 45 15
94 Sonnet 02: Time Does Not Bring Relief; You All Have Lied 01/13/2003 6.5 66 67
95 Sonnet 03: Mindful Of You The Sodden Earth In Spring 01/13/2003 5.4 42 5
96 Sonnet 04: Not In This Chamber Only At My Birth 01/13/2003 5.6 44 4
97 Sonnet 05: If I Should Learn, In Some Quite Casual Way 01/13/2003 5.9 48 18
98 Sonnet 06: Bluebeard 01/13/2003 6.1 50 9
99 Sonnet I: Thou Art Not Lovelier Than Lilacs 01/01/2004 5.6 43 12
100 Sonnet Ii: Time Does Not Bring Relief 01/01/2004 6.0 47 25
101 Sonnet Iii: Mindful Of You The Sodden Earth 01/01/2004 5.6 42 5
102 Sonnet Iv: Not In This Chamber 01/01/2004 5.5 42 4
103 Sonnet V: If I Should Learn 01/01/2004 5.4 49 4
104 Sonnet Vi: This Door You Might Not Open 01/01/2004 5.9 49 12
105 Sonnets (1923) 01/01/2004 5.3 49 6
106 Sonnets 01: We Talk Of Taxes, And I Call You Friend 01/13/2003 5.4 48 9
107 Sonnets 02: Into The Golden Vessel Of Great Song 01/13/2003 5.3 55 3
108 Sonnets 03: Not With Libations, But With Shouts And Laughter 01/13/2003 5.8 56 6
109 Sonnets 04: Only Until This Cigarette Is Ended 01/13/2003 5.9 35 12
110 Sonnets 05: Once More Into My Arid Days Like Dew 01/13/2003 5.7 32 8
111 Sonnets 06: No Rose That In A Garden Ever Grew 01/13/2003 5.6 42 7
112 Sonnets 07: When I Too Long Have Looked Upon Your Face 01/13/2003 5.9 44 24
113 Sonnets 08: And You As Well Must Die, Beloved Dust 01/13/2003 5.5 50 7
114 Sonnets 09: Let You Not Say Of Me When I Am Old 01/13/2003 5.6 51 9
115 Sonnets 10: Oh, My Beloved, Have You Thought Of This 01/13/2003 5.9 45 6
116 Sonnets 11: As To Some Lovely Temple, Tenantless 01/13/2003 5.7 44 3
117 Sonnets 12: Cherish You Then The Hope I Shall Forget 01/13/2003 5.5 61 3
118 Sonnets From An Ungrafted Tree 01/13/2003 5.7 46 4
119 Sorrow 01/13/2003 5.7 53 26
120 Souvenir 01/13/2003 5.6 46 11
121 Spring 01/13/2003 6.2 48 22
122 Sweet Love, Sweet Thorn, When Lightly To My Heart 01/13/2003 5.6 46 18
123 Tavern 01/13/2003 5.6 48 8
124 The Ballad Of The Harp-Weaver 01/13/2003 5.9 61 29
125 The Bean-Stalk 01/13/2003 5.6 58 5
126 The Betrothal 01/01/2004 5.7 38 14
127 The Blue Flag In The Bog 01/01/2004 5.9 34 4
128 The Blue-Flag In The Bog 01/13/2003 5.3 63 2
129 The Concert 01/13/2003 5.5 71 7
130 The Courage That My Mother Had 01/03/2015 9.0 1 2
131 The Curse 01/13/2003 5.9 68 13
132 The Death Of Autumn 01/13/2003 5.9 60 10
133 The Dream 01/13/2003 5.8 62 27
134 The Fawn 01/13/2003 5.8 66 5
135 The Fledgling 01/13/2003 5.4 49 2
136 The Goose-Girl 01/13/2003 5.8 69 9
137 The Leaf And The Tree 01/13/2003 5.9 60 17
138 The Little Ghost 01/13/2003 6.1 38 16
139 The Little Hill 01/13/2003 5.8 54 7
140 The Penitent 01/13/2003 5.6 30 11
141 The Philosopher 01/13/2003 5.6 45 23
142 The Plaid Dress 01/13/2003 5.8 46 10
143 The Poet And His Book 01/13/2003 6.2 40 11
144 The Prisoner 07/30/2015 -- 0 0
145 The Return From Town 01/13/2003 5.5 47 6
146 The Shroud 01/13/2003 5.5 57 5
147 The Singing-Woman From The Wood's Edge 01/13/2003 5.9 45 8
148 The Snow Storm 01/13/2003 5.8 75 7
149 The Spring And The Fall 01/13/2003 8.0 111 68
150 The Suicide 01/13/2003 5.5 58 19
151 The True Encounter 01/13/2003 5.9 55 6
152 The Unexplorer 01/13/2003 6.0 50 8
153 The Wood Road 01/13/2003 5.8 44 6
154 Think Not, Not For A Moment Let Your Mind 01/13/2003 5.7 55 14
155 Three Songs Of Shattering 01/13/2003 5.9 38 9
156 Thursday 01/01/2004 5.3 76 11
157 To A Poet That Died Young 01/13/2003 5.8 43 7
158 To A Young Poet 01/01/2004 5.9 62 9
159 To Kathleen 01/01/2004 5.6 58 4
160 To The Not Impossible Him 01/13/2003 5.4 53 14
161 To Those Without Pity 01/13/2003 5.2 40 10
162 Travel 01/13/2003 6.0 41 17
163 Two Sonnets In Memory 01/13/2003 5.9 32 6
164 Underground System 01/13/2003 5.9 35 3
165 We Talk Of Taxes... 01/01/2004 6.2 28 4
166 Weeds 01/13/2003 8.0 1 8
167 What Lips My Lips Have Kissed, And Where, And Why (Sonnet Xliii) 01/13/2003 7.9 127 384
168 When I Too Long Have Looked Upon Your Face 01/01/2004 6.4 39 32
169 When The Year Grows Old 01/04/2003 5.7 38 17
170 When We Are Old And These Rejoicing Veins 01/13/2003 5.7 35 14
171 Whereas At Morning In A Jeweled Crown 01/13/2003 5.5 43 7
172 Wild Swans 01/13/2003 6.2 35 14
173 Witch-Wife 01/13/2003 5.6 41 26
174 Wraith 01/13/2003 5.7 30 12
[Report Error]